QPF
0.00 0.00 0.00 0.00 0.00 0.00 0.00 0.00 0.00 0.00 0.00 0.00 0.00 0.00 0.00 0.00 0.00 0.00 0.00 0.00 0.00 0.00 0.00 0.00 0.00 0.00 0.00 0.00 0.00 0.00 0.00 0.00 0.00 0.00 0.00 0.00 0.00 0.00 0.00 0.00 0.00 0.00 0.00 0.00
0.00 0.00 0.00 0.00 0.00 0.00 0.00 0.00 0.00 0.00 0.00 0.00 0.00 0.00 0.00 0.00 0.00 0.00 0.00 0.00 0.00 0.00 0.00 0.00 0.00 0.00 0.00 0.00 0.00 0.00 0.00 0.00 0.00 0.00 0.00 0.00 0.00 0.00 0.00 0.00 0.00 0.00 0.00 0.00
0.00 0.00 0.00 0.00 0.00 0.00 0.00 0.00 0.00 0.00 0.00 0.00 0.00 0.00 0.00 0.00 0.00 0.00 0.00 0.00 0.00 0.00 0.00 0.00 0.00 0.00 0.00 0.00 0.00 0.00 0.00 0.00 0.00 0.00 0.00 0.00 0.00 0.00 0.00 0.00 0.00 0.00 0.00 0.00
0.00 0.00 0.00 0.00 0.00 0.00 0.00 0.00 0.00 0.00 0.00 0.00 0.00 0.00 0.00 0.00 0.00 0.00 0.00 0.00 0.00 0.00 0.00 0.00 0.00 0.00 0.00 0.00 0.00 0.00 0.00 0.00 0.00 0.00 0.00 0.00 0.00 0.00 0.00 0.00 0.00 0.00 0.00 0.00
0.00 0.00 0.00 0.00 0.00 0.00 0.00 0.00 0.00 0.00 0.00 0.00 0.00 0.00 0.00 0.00 0.00 0.00 0.00 0.00 0.00 0.00 0.00 0.00 0.00 0.00 0.00 0.00 0.00 0.00 0.00 0.00 0.00 0.00 0.00 0.00 0.00 0.00 0.00 0.00 0.00 0.00 0.00 0.00
0.00 0.00 0.00 0.00 0.00 0.00 0.00 0.00 0.00 0.00 0.00 0.00 0.00 0.00 0.00 0.00 0.00 0.00 0.00 0.00 0.00 0.00 0.00 0.00 0.00 0.00 0.00 0.00 0.00 0.00 0.00 0.00 0.00 0.00 0.00 0.00 0.00 0.00 0.00 0.00 0.00 0.00 0.00 0.00
0.00 0.00 0.00 0.00 0.00 0.00 0.00 0.00 0.00 0.00 0.00 0.00 0.00 0.00 0.00 0.00 0.00 0.00 0.00 0.00 0.00 0.00 0.00 0.00 0.00 0.00 0.00 0.00 0.00 0.00 0.00 0.00 0.00 0.00 0.00 0.00 0.00 0.00 0.00 0.00 0.00 0.00 0.00 0.00
0.00 0.00 0.00 0.00 0.00 0.00 0.00 0.00 0.00 0.00 0.00 0.00 0.00 0.00 0.00 0.00 0.00 0.00 0.00 0.00 0.00 0.00 0.00 0.00 0.00 0.00 0.00 0.00 0.00 0.00 0.00 0.00 0.00 0.00 0.00 0.00 0.00 0.00 0.00 0.00 0.00 0.00 0.00 0.00
0.00 0.00 0.00 0.00 0.00 0.00 0.00 0.00 0.00 0.00 0.00 0.00 0.00 0.00 0.00 0.00 0.00 0.00 0.00 0.00 0.00 0.00 0.00 0.00 0.00 0.00 0.00 0.00 0.00 0.00 0.00 0.00 0.00 0.00 0.00 0.00 0.00 0.00 0.00 0.00 0.00 0.00 0.00 0.00
0.00 0.00 0.00 0.00 0.00 0.00 0.00 0.00 0.00 0.00 0.00 0.00 0.00 0.00 0.00 0.00 0.00 0.00 0.00 0.00 0.00 0.00 0.00 0.00 0.00 0.00 0.00 0.00 0.00 0.00 0.00 0.00 0.00 0.00 0.00 0.00 0.00 0.00 0.00 0.00 0.00 0.00 0.00 0.00
0.00 0.00 0.00 0.00 0.00 0.00 0.00 0.00 0.00 0.00 0.00 0.00 0.00 0.00 0.00 0.00 0.00 0.00 0.00 0.00 0.00 0.00 0.00 0.00 0.00 0.00 0.00 0.00 0.00 0.00 0.00 0.00 0.00 0.00 0.00 0.00 0.00 0.00 0.00 0.00 0.00 0.00 0.00 0.00
0.00 0.00 0.00 0.00 0.00 0.00 0.00 0.00 0.00 0.00 0.00 0.00 0.00 0.00 0.00 0.00 0.00 0.00 0.00 0.00 0.00 0.00 0.00 0.00 0.00 0.00 0.00 0.00 0.00 0.00 0.00 0.00 0.00 0.00 0.00 0.00 0.00 0.00 0.00 0.00 0.00 0.00 0.00 0.00
0.00 0.00 0.00 0.00 0.00 0.00 0.00 0.00 0.00 0.00 0.00 0.00 0.00 0.00 0.00 0.00 0.00 0.00 0.00 0.00 0.00 0.00 0.00 0.00 0.00 0.00 0.00 0.00 0.00 0.00 0.00 0.00 0.00 0.00 0.00 0.00 0.00 0.00 0.00 0.00 0.00 0.00 0.00 0.00
0.00 0.00 0.00 0.00 0.00 0.00 0.00 0.00 0.00 0.00 0.00 0.00 0.00 0.00 0.00 0.00 0.00 0.00 0.00 0.00 0.00 0.00 0.00 0.00 0.00 0.00 0.00 0.00 0.00 0.00 0.00 0.00 0.00 0.00 0.00 0.00 0.00 0.00 0.00 0.00 0.00 0.00 0.00 0.00
0.00 0.00 0.00 0.00 0.00 0.00 0.00 0.00 0.00 0.00 0.00 0.00 0.00 0.00 0.00 0.00 0.00 0.00 0.00 0.00 0.00 0.00 0.00 0.00 0.00 0.00 0.00 0.00 0.00 0.00 0.00 0.00 0.00 0.00 0.00 0.00 0.00 0.00 0.00 0.00 0.00 0.00 0.00 0.00
0.00 0.00 0.00 0.00 0.00 0.00 0.00 0.00 0.00 0.00 0.00 0.00 0.00 0.00 0.00 0.00 0.00 0.00 0.00 0.00 0.00 0.00 0.00 0.00 0.00 0.00 0.00 0.00 0.00 0.00 0.00 0.00 0.00 0.00 0.00 0.00 0.00 0.00 0.00 0.00 0.00 0.00 0.00 0.00
0.00 0.00 0.00 0.00 0.00 0.00 0.00 0.00 0.00 0.00 0.00 0.00 0.00 0.00 0.00 0.00 0.00 0.00 0.00 0.00 0.00 0.00 0.00 0.00 0.00 0.00 0.00 0.00 0.00 0.00 0.00 0.00 0.00 0.00 0.00 0.00 0.00 0.00 0.00 0.00 0.00 0.00 0.00 0.00
0.00 0.00 0.00 0.00 0.00 0.00 0.00 0.00 0.00 0.00 0.00 0.00 0.00 0.00 0.00 0.00 0.00 0.00 0.00 0.00 0.00 0.00 0.00 0.00 0.00 0.00 0.00 0.00 0.00 0.00 0.00 0.00 0.00 0.00 0.00 0.00 0.00 0.00 0.00 0.00 0.00 0.00 0.00 0.00
0.00 0.00 0.00 0.00 0.00 0.00 0.00 0.00 0.00 0.00 0.00 0.00 0.00 0.00 0.00 0.00 0.00 0.00 0.00 0.00 0.00 0.00 0.00 0.00 0.00 0.00 0.00 0.00 0.00 0.00 0.00 0.00 0.00 0.00 0.00 0.00 0.00 0.00 0.00 0.00 0.00 0.00 0.00 0.00
0.00 0.00 0.00 0.00 0.00 0.00 0.00 0.00 0.00 0.00 0.00 0.00 0.00 0.00 0.00 0.00 0.00 0.00 0.00 0.00 0.00 0.00 0.00 0.00 0.00 0.00 0.00 0.00 0.00 0.00 0.00 0.00 0.00 0.00 0.00 0.00 0.00 0.00 0.00 0.00 0.00 0.00 0.00 0.00
0.00 0.00 0.00 0.00 0.00 0.00 0.00 0.00 0.00 0.00 0.00 0.00 0.00 0.00 0.00 0.00 0.00 0.00 0.00 0.00 0.00 0.00 0.00 0.00 0.00 0.00 0.00 0.00 0.00 0.00 0.00 0.00 0.00 0.00 0.00 0.00 0.00 0.00 0.00 0.00 0.00 0.00 0.00 0.00
0.00 0.00 0.00 0.00 0.00 0.00 0.00 0.00 0.00 0.00 0.00 0.00 0.00 0.00 0.00 0.00 0.00 0.00 0.00 0.00 0.00 0.00 0.00 0.00 0.00 0.00 0.00 0.00 0.00 0.00 0.00 0.00 0.00 0.00 0.00 0.00 0.00 0.00 0.00 0.00 0.00 0.00 0.00 0.01
0.00 0.00 0.00 0.00 0.00 0.00 0.00 0.00 0.00 0.00 0.00 0.00 0.00 0.00 0.00 0.00 0.00 0.00 0.00 0.00 0.00 0.00 0.00 0.00 0.00 0.00 0.00 0.00 0.00 0.00 0.00 0.00 0.00 0.00 0.00 0.00 0.00 0.00 0.00 0.00 0.00 0.00 0.01 0.02
0.00 0.00 0.00 0.00 0.00 0.00 0.00 0.00 0.00 0.00 0.00 0.00 0.00 0.00 0.00 0.00 0.00 0.00 0.00 0.00 0.00 0.00 0.00 0.00 0.00 0.00 0.00 0.00 0.00 0.00 0.00 0.00 0.00 0.00 0.00 0.00 0.00 0.00 0.00 0.00 0.00 0.00 0.02 0.05
0.00 0.00 0.00 0.00 0.00 0.00 0.00 0.00 0.00 0.00 0.00 0.00 0.00 0.00 0.00 0.00 0.00 0.00 0.00 0.00 0.00 0.00 0.00 0.00 0.00 0.00 0.00 0.00 0.00 0.00 0.00 0.00 0.00 0.00 0.00 0.00 0.00 0.00 0.00 0.00 0.00 0.00 0.01 0.03
0.00 0.00 0.00 0.00 0.00 0.00 0.00 0.00 0.00 0.00 0.00 0.00 0.00 0.00 0.00 0.00 0.00 0.00 0.00 0.00 0.00 0.00 0.00 0.00 0.00 0.00 0.00 0.00 0.00 0.00 0.00 0.00 0.00 0.00 0.00 0.00 0.00 0.00 0.00 0.00 0.00 0.00 0.00 0.01
MSLP
1024.28 1025.24 1026.11 1026.83 1027.38 1027.79 1028.09 1028.36 1028.66 1029.05 1029.56 1030.20 1030.92 1031.70 1032.46 1033.16 1033.76 1034.23 1034.60 1034.88 1035.10 1035.31 1035.52 1035.75 1035.97 1036.16 1036.29 1036.32 1036.23 1036.00 1035.65 1035.22 1034.73 1034.24 1033.76 1033.32 1032.92 1032.52 1032.09 1031.62 1031.08 1030.45 1029.75 1029.01
1025.20 1025.96 1026.59 1027.06 1027.38 1027.60 1027.77 1027.96 1028.25 1028.67 1029.24 1029.94 1030.73 1031.56 1032.37 1033.10 1033.72 1034.22 1034.61 1034.92 1035.18 1035.42 1035.66 1035.90 1036.12 1036.29 1036.39 1036.39 1036.27 1036.03 1035.70 1035.30 1034.86 1034.42 1034.00 1033.58 1033.17 1032.74 1032.26 1031.71 1031.09 1030.40 1029.65 1028.90
1025.99 1026.55 1026.95 1027.20 1027.33 1027.39 1027.45 1027.60 1027.87 1028.32 1028.92 1029.67 1030.50 1031.35 1032.18 1032.92 1033.56 1034.09 1034.52 1034.88 1035.20 1035.49 1035.76 1036.01 1036.23 1036.37 1036.44 1036.40 1036.25 1036.02 1035.71 1035.35 1034.97 1034.59 1034.21 1033.82 1033.40 1032.93 1032.38 1031.76 1031.05 1030.29 1029.51 1028.75
1026.67 1027.04 1027.24 1027.31 1027.28 1027.23 1027.23 1027.34 1027.63 1028.08 1028.71 1029.45 1030.28 1031.12 1031.92 1032.65 1033.29 1033.85 1034.33 1034.75 1035.13 1035.49 1035.81 1036.08 1036.30 1036.42 1036.45 1036.38 1036.22 1035.98 1035.69 1035.38 1035.06 1034.73 1034.39 1034.02 1033.59 1033.07 1032.47 1031.77 1030.99 1030.18 1029.37 1028.59
1027.27 1027.47 1027.51 1027.44 1027.31 1027.20 1027.17 1027.29 1027.58 1028.04 1028.65 1029.37 1030.14 1030.92 1031.67 1032.35 1032.98 1033.54 1034.06 1034.55 1035.01 1035.44 1035.83 1036.14 1036.36 1036.48 1036.49 1036.39 1036.21 1035.96 1035.69 1035.40 1035.12 1034.83 1034.52 1034.15 1033.71 1033.16 1032.51 1031.76 1030.94 1030.09 1029.25 1028.47
1027.82 1027.88 1027.80 1027.64 1027.47 1027.34 1027.33 1027.47 1027.77 1028.23 1028.81 1029.46 1030.14 1030.82 1031.47 1032.08 1032.66 1033.23 1033.78 1034.33 1034.88 1035.39 1035.84 1036.21 1036.46 1036.58 1036.58 1036.46 1036.25 1036.00 1035.72 1035.44 1035.17 1034.89 1034.58 1034.22 1033.76 1033.20 1032.51 1031.74 1030.89 1030.03 1029.18 1028.40
1028.32 1028.27 1028.12 1027.92 1027.74 1027.64 1027.67 1027.85 1028.18 1028.62 1029.15 1029.72 1030.29 1030.84 1031.37 1031.89 1032.41 1032.96 1033.53 1034.14 1034.77 1035.36 1035.90 1036.33 1036.62 1036.76 1036.75 1036.61 1036.38 1036.09 1035.79 1035.49 1035.21 1034.92 1034.60 1034.22 1033.75 1033.17 1032.48 1031.70 1030.86 1029.99 1029.15 1028.36
1028.75 1028.64 1028.45 1028.25 1028.11 1028.06 1028.15 1028.38 1028.72 1029.15 1029.63 1030.10 1030.55 1030.97 1031.38 1031.80 1032.25 1032.77 1033.36 1034.02 1034.72 1035.40 1036.01 1036.51 1036.84 1037.01 1037.00 1036.84 1036.58 1036.26 1035.92 1035.58 1035.25 1034.92 1034.57 1034.17 1033.68 1033.10 1032.42 1031.65 1030.82 1029.96 1029.12 1028.32
1029.09 1028.94 1028.75 1028.57 1028.48 1028.49 1028.64 1028.92 1029.29 1029.70 1030.12 1030.51 1030.85 1031.16 1031.46 1031.79 1032.19 1032.69 1033.30 1034.00 1034.75 1035.50 1036.18 1036.73 1037.11 1037.30 1037.30 1037.13 1036.84 1036.47 1036.08 1035.68 1035.29 1034.90 1034.50 1034.07 1033.56 1032.98 1032.30 1031.55 1030.75 1029.91 1029.07 1028.24
1029.30 1029.14 1028.96 1028.82 1028.78 1028.85 1029.06 1029.37 1029.74 1030.14 1030.51 1030.83 1031.10 1031.33 1031.56 1031.84 1032.21 1032.70 1033.32 1034.06 1034.85 1035.65 1036.38 1036.98 1037.39 1037.59 1037.60 1037.42 1037.10 1036.69 1036.24 1035.78 1035.32 1034.87 1034.41 1033.93 1033.40 1032.80 1032.14 1031.41 1030.62 1029.79 1028.94 1028.08
1029.37 1029.23 1029.07 1028.97 1028.96 1029.07 1029.29 1029.61 1029.98 1030.35 1030.69 1030.97 1031.20 1031.40 1031.61 1031.88 1032.26 1032.77 1033.42 1034.18 1035.01 1035.83 1036.58 1037.19 1037.62 1037.83 1037.84 1037.65 1037.32 1036.88 1036.38 1035.86 1035.34 1034.82 1034.31 1033.77 1033.21 1032.60 1031.93 1031.21 1030.44 1029.61 1028.74 1027.84
1029.37 1029.24 1029.11 1029.02 1029.02 1029.12 1029.33 1029.61 1029.94 1030.28 1030.59 1030.86 1031.09 1031.32 1031.57 1031.89 1032.32 1032.88 1033.56 1034.34 1035.18 1036.00 1036.75 1037.35 1037.76 1037.97 1037.97 1037.79 1037.45 1036.99 1036.47 1035.91 1035.34 1034.77 1034.20 1033.62 1033.01 1032.38 1031.71 1030.99 1030.21 1029.37 1028.48 1027.54
1029.37 1029.27 1029.15 1029.05 1029.01 1029.06 1029.19 1029.39 1029.65 1029.93 1030.21 1030.49 1030.77 1031.06 1031.41 1031.83 1032.35 1032.98 1033.72 1034.52 1035.35 1036.15 1036.86 1037.42 1037.81 1038.00 1038.00 1037.81 1037.48 1037.03 1036.50 1035.93 1035.33 1034.72 1034.11 1033.48 1032.84 1032.19 1031.50 1030.76 1029.98 1029.13 1028.22 1027.24
1029.49 1029.41 1029.28 1029.13 1029.01 1028.94 1028.94 1029.02 1029.16 1029.37 1029.62 1029.91 1030.26 1030.66 1031.13 1031.69 1032.34 1033.08 1033.87 1034.70 1035.51 1036.27 1036.92 1037.43 1037.76 1037.92 1037.91 1037.73 1037.41 1036.99 1036.48 1035.92 1035.32 1034.69 1034.05 1033.40 1032.73 1032.04 1031.33 1030.59 1029.80 1028.94 1028.02 1027.02
1029.78 1029.72 1029.55 1029.33 1029.08 1028.86 1028.68 1028.59 1028.58 1028.68 1028.89 1029.20 1029.63 1030.16 1030.79 1031.51 1032.31 1033.15 1034.02 1034.87 1035.66 1036.36 1036.94 1037.38 1037.65 1037.77 1037.74 1037.58 1037.29 1036.90 1036.44 1035.90 1035.32 1034.70 1034.04 1033.37 1032.68 1031.98 1031.25 1030.50 1029.70 1028.85 1027.94 1026.95
1030.28 1030.21 1030.00 1029.67 1029.27 1028.85 1028.47 1028.17 1027.99 1027.97 1028.12 1028.45 1028.95 1029.61 1030.40 1031.30 1032.25 1033.22 1034.16 1035.03 1035.80 1036.45 1036.95 1037.31 1037.52 1037.60 1037.55 1037.40 1037.15 1036.81 1036.39 1035.90 1035.35 1034.74 1034.09 1033.42 1032.72 1032.00 1031.27 1030.51 1029.73 1028.90 1028.01 1027.05
1030.90 1030.82 1030.55 1030.10 1029.54 1028.92 1028.32 1027.81 1027.45 1027.30 1027.39 1027.73 1028.30 1029.08 1030.03 1031.09 1032.19 1033.27 1034.28 1035.18 1035.93 1036.52 1036.96 1037.24 1037.40 1037.44 1037.38 1037.24 1037.02 1036.73 1036.36 1035.92 1035.41 1034.83 1034.20 1033.52 1032.82 1032.10 1031.37 1030.63 1029.87 1029.08 1028.24 1027.33
1031.51 1031.41 1031.06 1030.50 1029.78 1028.98 1028.18 1027.49 1026.97 1026.72 1026.75 1027.09 1027.73 1028.62 1029.70 1030.89 1032.12 1033.30 1034.37 1035.29 1036.03 1036.59 1036.97 1037.20 1037.30 1037.32 1037.25 1037.12 1036.94 1036.69 1036.37 1035.97 1035.49 1034.94 1034.32 1033.66 1032.96 1032.25 1031.54 1030.82 1030.10 1029.35 1028.57 1027.74
1031.90 1031.76 1031.35 1030.70 1029.86 1028.92 1027.98 1027.15 1026.53 1026.20 1026.20 1026.56 1027.25 1028.23 1029.42 1030.72 1032.04 1033.30 1034.42 1035.36 1036.10 1036.63 1036.97 1037.16 1037.24 1037.23 1037.17 1037.06 1036.90 1036.68 1036.40 1036.03 1035.58 1035.05 1034.45 1033.80 1033.12 1032.42 1031.73 1031.04 1030.36 1029.67 1028.96 1028.20
1031.89 1031.71 1031.25 1030.53 1029.63 1028.62 1027.61 1026.73 1026.07 1025.73 1025.74 1026.14 1026.88 1027.93 1029.19 1030.57 1031.95 1033.26 1034.41 1035.36 1036.09 1036.61 1036.94 1037.11 1037.18 1037.17 1037.12 1037.02 1036.88 1036.69 1036.43 1036.08 1035.65 1035.14 1034.55 1033.91 1033.24 1032.57 1031.90 1031.25 1030.61 1029.97 1029.32 1028.63
1031.36 1031.13 1030.64 1029.91 1029.00 1028.00 1027.02 1026.17 1025.56 1025.28 1025.35 1025.81 1026.62 1027.72 1029.02 1030.44 1031.84 1033.16 1034.32 1035.27 1036.00 1036.52 1036.85 1037.03 1037.10 1037.11 1037.07 1036.99 1036.87 1036.69 1036.44 1036.10 1035.68 1035.17 1034.60 1033.97 1033.32 1032.67 1032.03 1031.41 1030.81 1030.21 1029.60 1028.97
1030.29 1030.02 1029.51 1028.80 1027.95 1027.05 1026.19 1025.47 1025.00 1024.84 1025.03 1025.58 1026.45 1027.60 1028.92 1030.33 1031.73 1033.03 1034.17 1035.10 1035.83 1036.34 1036.68 1036.88 1036.99 1037.01 1036.99 1036.93 1036.82 1036.65 1036.40 1036.07 1035.65 1035.15 1034.59 1033.98 1033.35 1032.72 1032.11 1031.52 1030.94 1030.38 1029.80 1029.20
1028.79 1028.45 1027.94 1027.29 1026.57 1025.83 1025.17 1024.67 1024.40 1024.44 1024.79 1025.45 1026.40 1027.58 1028.90 1030.28 1031.63 1032.88 1033.97 1034.87 1035.58 1036.10 1036.45 1036.68 1036.81 1036.87 1036.87 1036.83 1036.72 1036.55 1036.31 1035.98 1035.56 1035.07 1034.52 1033.94 1033.33 1032.74 1032.15 1031.58 1031.03 1030.47 1029.91 1029.32
1027.00 1026.59 1026.10 1025.54 1024.97 1024.46 1024.05 1023.83 1023.83 1024.10 1024.64 1025.44 1026.47 1027.66 1028.96 1030.28 1031.56 1032.73 1033.76 1034.61 1035.28 1035.80 1036.17 1036.42 1036.58 1036.67 1036.70 1036.67 1036.57 1036.40 1036.15 1035.82 1035.42 1034.94 1034.42 1033.86 1033.29 1032.73 1032.17 1031.63 1031.08 1030.53 1029.96 1029.36
1025.13 1024.65 1024.17 1023.72 1023.34 1023.08 1022.96 1023.04 1023.34 1023.86 1024.61 1025.55 1026.65 1027.85 1029.11 1030.35 1031.54 1032.61 1033.55 1034.34 1034.98 1035.48 1035.86 1036.13 1036.32 1036.44 1036.48 1036.46 1036.36 1036.20 1035.95 1035.62 1035.23 1034.78 1034.28 1033.77 1033.25 1032.72 1032.20 1031.67 1031.14 1030.58 1030.00 1029.38
1023.36 1022.81 1022.35 1022.01 1021.82 1021.81 1022.00 1022.38 1022.97 1023.75 1024.68 1025.75 1026.91 1028.11 1029.32 1030.47 1031.55 1032.52 1033.37 1034.09 1034.69 1035.17 1035.55 1035.84 1036.04 1036.17 1036.23 1036.21 1036.12 1035.94 1035.69 1035.38 1035.00 1034.59 1034.14 1033.67 1033.20 1032.72 1032.24 1031.73 1031.21 1030.64 1030.04 1029.39
Thickness
5684 5669 5657 5660 5664 5666 5661 5645 5634 5630 5632 5616 5599 5587 5584 5575 5563 5556 5547 5536 5525 5513 5499 5487 5475 5461 5447 5433 5419 5405 5389 5373 5359 5347 5337 5328 5317 5307 5298 5289 5282 5276 5273 5270
5669 5661 5665 5666 5665 5661 5654 5639 5632 5629 5630 5614 5595 5586 5581 5573 5564 5557 5545 5530 5517 5502 5489 5479 5464 5448 5432 5418 5404 5389 5371 5356 5342 5330 5319 5309 5300 5290 5282 5274 5267 5261 5257 5255
5661 5661 5667 5661 5650 5651 5641 5641 5635 5628 5624 5614 5598 5590 5575 5572 5564 5552 5536 5523 5508 5494 5481 5469 5453 5436 5421 5406 5390 5374 5356 5341 5328 5317 5308 5298 5289 5278 5270 5264 5258 5251 5247 5243
5659 5660 5660 5653 5646 5644 5643 5643 5639 5628 5613 5604 5603 5589 5570 5560 5554 5543 5527 5509 5496 5485 5472 5458 5443 5427 5411 5393 5375 5357 5341 5328 5316 5305 5295 5284 5275 5268 5260 5254 5249 5243 5237 5234
5656 5656 5651 5649 5647 5646 5643 5645 5639 5632 5617 5606 5597 5585 5576 5555 5545 5535 5521 5503 5489 5476 5464 5450 5435 5418 5400 5380 5362 5344 5328 5316 5305 5294 5282 5271 5262 5254 5250 5245 5240 5235 5229 5224
5658 5660 5654 5649 5650 5648 5644 5638 5633 5619 5608 5602 5600 5577 5584 5549 5545 5531 5515 5495 5481 5469 5457 5442 5425 5407 5387 5368 5349 5333 5319 5307 5296 5284 5272 5261 5252 5246 5242 5238 5232 5227 5221 5214
5653 5653 5649 5647 5645 5643 5634 5624 5613 5613 5602 5601 5604 5584 5582 5554 5542 5528 5507 5486 5474 5462 5447 5431 5414 5395 5376 5357 5339 5324 5311 5299 5286 5274 5262 5251 5243 5237 5232 5227 5222 5216 5210 5203
5645 5643 5645 5642 5636 5628 5628 5621 5606 5598 5587 5589 5595 5587 5565 5549 5537 5520 5500 5483 5470 5455 5438 5422 5404 5383 5363 5346 5330 5315 5302 5290 5277 5265 5253 5243 5235 5228 5222 5215 5207 5200 5193 5187
5644 5645 5646 5642 5638 5632 5625 5609 5605 5586 5580 5573 5580 5576 5553 5543 5528 5506 5490 5476 5463 5448 5432 5412 5392 5372 5352 5335 5320 5306 5294 5281 5269 5257 5245 5237 5228 5221 5214 5205 5195 5185 5176 5169
5643 5643 5643 5641 5637 5632 5624 5608 5588 5586 5575 5566 5570 5570 5564 5535 5522 5506 5486 5471 5458 5442 5422 5402 5380 5360 5342 5326 5311 5298 5285 5273 5261 5249 5237 5230 5221 5213 5205 5195 5184 5173 5161 5150
5642 5634 5638 5632 5628 5628 5619 5611 5596 5576 5567 5558 5551 5568 5562 5538 5523 5502 5483 5467 5450 5433 5413 5390 5369 5351 5333 5318 5304 5292 5280 5268 5256 5244 5233 5223 5215 5206 5196 5184 5172 5160 5146 5132
5635 5627 5625 5632 5628 5621 5615 5610 5592 5579 5571 5551 5536 5556 5550 5533 5518 5498 5477 5460 5443 5425 5403 5381 5361 5344 5327 5313 5300 5287 5276 5263 5251 5239 5228 5218 5209 5199 5188 5176 5162 5147 5131 5115
5634 5627 5627 5629 5625 5618 5611 5605 5593 5575 5559 5539 5536 5559 5531 5520 5506 5491 5471 5453 5435 5415 5394 5373 5355 5339 5324 5309 5295 5283 5271 5259 5247 5235 5223 5213 5203 5193 5181 5169 5154 5137 5118 5102
5630 5625 5625 5628 5627 5621 5610 5601 5589 5572 5554 5542 5544 5555 5529 5512 5496 5480 5463 5445 5424 5406 5387 5370 5351 5335 5319 5304 5290 5278 5267 5255 5244 5231 5219 5208 5199 5188 5176 5162 5146 5128 5110 5096
5627 5625 5625 5623 5621 5616 5609 5601 5588 5574 5563 5553 5560 5552 5544 5517 5497 5478 5457 5437 5421 5401 5384 5368 5350 5332 5316 5300 5287 5275 5263 5252 5240 5228 5216 5205 5194 5183 5171 5158 5142 5123 5105 5092
5624 5625 5622 5620 5620 5612 5607 5603 5590 5577 5567 5558 5555 5548 5542 5514 5490 5469 5449 5434 5416 5398 5382 5365 5348 5330 5313 5298 5285 5273 5261 5249 5238 5225 5213 5202 5191 5180 5168 5155 5139 5122 5105 5093
5620 5621 5618 5611 5606 5612 5610 5612 5591 5582 5573 5567 5558 5551 5519 5502 5486 5465 5445 5428 5411 5396 5380 5362 5343 5327 5311 5296 5283 5270 5259 5247 5235 5223 5212 5201 5190 5178 5167 5154 5139 5123 5106 5094
5618 5611 5596 5592 5603 5613 5627 5613 5601 5590 5584 5570 5565 5548 5523 5505 5481 5459 5441 5424 5408 5394 5376 5358 5339 5324 5309 5294 5281 5268 5257 5245 5234 5223 5212 5201 5190 5179 5168 5156 5141 5125 5109 5097
5611 5607 5594 5581 5589 5599 5615 5609 5600 5589 5585 5579 5561 5536 5510 5483 5463 5449 5439 5423 5407 5392 5375 5356 5339 5323 5307 5293 5280 5267 5256 5245 5234 5225 5214 5203 5192 5182 5171 5159 5145 5130 5116 5103
5600 5592 5578 5570 5589 5600 5625 5611 5597 5588 5576 5579 5557 5529 5502 5479 5472 5463 5439 5422 5405 5388 5371 5354 5337 5321 5306 5292 5279 5267 5256 5245 5236 5226 5215 5204 5194 5183 5173 5161 5149 5135 5122 5110
5597 5588 5578 5570 5576 5604 5621 5599 5591 5582 5595 5581 5555 5533 5508 5492 5483 5461 5438 5420 5404 5387 5370 5353 5336 5320 5305 5292 5279 5267 5255 5245 5236 5226 5216 5207 5197 5186 5176 5164 5153 5141 5129 5118
5609 5588 5574 5562 5565 5602 5613 5593 5592 5600 5588 5569 5550 5531 5512 5492 5470 5453 5436 5419 5402 5384 5368 5351 5334 5319 5305 5292 5279 5266 5256 5246 5237 5227 5218 5210 5200 5190 5180 5169 5160 5150 5140 5128
5620 5624 5611 5606 5629 5640 5618 5614 5610 5595 5580 5564 5545 5526 5506 5484 5466 5452 5433 5416 5400 5383 5366 5350 5334 5319 5305 5292 5280 5268 5258 5249 5239 5230 5221 5213 5205 5196 5186 5176 5167 5159 5151 5140
5626 5623 5618 5614 5637 5637 5620 5613 5605 5592 5580 5563 5544 5524 5504 5484 5465 5447 5432 5415 5399 5382 5365 5349 5334 5319 5305 5293 5281 5270 5260 5251 5242 5233 5225 5218 5210 5202 5192 5183 5175 5168 5160 5151
5635 5621 5618 5623 5636 5632 5629 5615 5605 5590 5574 5556 5539 5522 5503 5483 5462 5443 5429 5415 5398 5384 5365 5349 5334 5320 5307 5294 5283 5273 5263 5254 5245 5237 5229 5221 5215 5206 5197 5189 5181 5175 5167 5161
5629 5636 5632 5649 5653 5640 5641 5623 5605 5588 5571 5555 5536 5515 5497 5480 5461 5443 5428 5414 5398 5382 5365 5350 5335 5322 5309 5297 5285 5276 5267 5258 5249 5241 5233 5226 5219 5211 5203 5194 5187 5180 5175 5169